FW1098 Weather Reports


time (UTC)temp
F
wind
direction
speed
knots
gust
knots
rain 1hr
in
rain 24hr
in
rain mn
in
humidity
%
barometer
mb
20260904123006 74 214 0.0 1.7 0.00 0.00 0.00 96 1017.4
20260904121504 72 214 0.0 0.0 0.00 0.00 0.00 96 1017.5
20260904120010 71 214 0.0 0.0 0.00 0.00 0.00 95 1017.5
20260904114603 71 214 0.0 0.0 0.00 0.00 0.00 95 1017.4
20260904113058 70 214 0.0 0.0 0.00 0.00 0.00 94 1017.2
20260904111554 70 214 0.0 0.0 0.00 0.00 0.00 94 1017.2
20260904110053 70 214 0.0 0.0 0.00 0.00 0.00 93 1017.0
20260904104553 70 214 0.0 0.0 0.00 0.00 0.00 93 1016.8
20260904103050 70 214 0.0 0.0 0.00 0.00 0.00 93 1016.6
20260904101602 70 214 0.0 0.0 0.00 0.00 0.00 93 1016.5
20260904100049 71 214 0.0 0.9 0.00 0.00 0.00 93 1016.4
20260904094551 71 214 0.0 0.9 0.00 0.00 0.00 93 1016.4
20260904093048 71 214 0.0 0.0 0.00 0.00 0.00 93 1016.4
20260904091547 71 214 0.0 0.0 0.00 0.00 0.00 93 1016.1
20260904090046 71 214 0.0 0.0 0.00 0.00 0.00 92 1015.9
20260904084549 72 214 0.0 0.0 0.00 0.00 0.00 92 1015.8
20260904083043 72 214 0.0 0.0 0.00 0.00 0.00 92 1015.8
20260904081541 72 214 0.0 0.0 0.00 0.00 0.00 92 1015.7
20260904080045 72 214 0.0 0.0 0.00 0.00 0.00 92 1015.7
20260904074539 72 214 0.0 0.0 0.00 0.00 0.00 91 1015.5
20260904073041 73 214 0.0 0.0 0.00 0.00 0.00 90 1015.6
20260904071537 73 214 0.0 0.0 0.00 0.00 0.00 90 1015.7
20260904070043 73 214 0.0 0.0 0.00 0.00 0.00 90 1015.8
20260904064539 74 214 0.0 0.0 0.00 0.00 0.00 90 1015.9
20260904063031 74 214 0.0 0.0 0.00 0.00 0.00 90 1016.0
20260904061537 74 214 0.0 0.0 0.00 0.00 0.00 90 1016.2
20260904060042 75 214 0.0 0.0 0.00 0.00 0.00 90 1016.4
20260904054538 75 214 0.0 0.0 0.00 0.00 0.00 89 1016.6
20260904053024 75 214 0.0 0.0 0.00 0.00 0.00 89 1016.7
20260904051522 75 214 0.0 0.0 0.00 0.00 0.00 88 1016.7
20260904050036 76 214 0.0 0.0 0.00 0.00 0.00 88 1016.9
20260904044521 76 214 0.0 0.0 0.00 0.00 0.00 88 1017.0
20260904043017 76 214 0.0 0.0 0.00 0.00 0.00 87 1017.0
20260904041520 77 214 0.0 0.0 0.00 0.00 0.00 87 1017.1
20260904040028 77 214 0.0 0.0 0.00 0.00 0.00 86 1017.1
20260904034514 77 214 0.0 0.0 0.00 0.00 0.00 86 1017.2
20260904033012 78 214 0.0 0.0 0.00 0.00 0.00 85 1017.2
20260904031519 78 214 0.0 0.0 0.00 0.00 0.00 84 1017.1
20260904030015 79 214 0.0 0.0 0.00 0.00 0.00 83 1017.3
20260904024512 79 214 0.0 0.0 0.00 0.00 0.00 82 1017.3
20260904023016 79 214 0.0 0.0 0.00 0.00 0.00 81 1017.2
20260904021525 80 214 0.0 0.0 0.00 0.00 0.00 80 1016.9
20260904020010 81 214 0.0 0.0 0.00 0.00 0.00 80 1016.9
20260904014509 81 214 0.0 0.0 0.00 0.00 0.00 79 1016.9
20260904013008 82 214 0.0 0.0 0.00 0.00 0.00 78 1016.7
20260904011508 83 214 0.0 0.0 0.00 0.00 0.00 77 1016.5
20260904010008 83 214 0.0 0.0 0.00 0.00 0.00 76 1016.2
20260904004507 84 214 0.0 0.0 0.00 0.00 0.00 75 1016.0
20260904003017 85 214 0.0 0.0 0.00 0.00 0.00 73 1015.7
20260904001507 86 214 0.0 0.0 0.00 0.00 0.00 73 1015.3
20260904000006 86 214 0.0 0.0 0.00 0.00 0.00 72 1015.0
20260903234505 86 214 0.0 0.0 0.00 0.00 0.00 72 1015.0
20260903233005 87 98 0.0 0.9 0.00 0.00 0.00 73 1015.0
20260903231506 88 280 0.0 0.0 0.00 0.00 0.00 71 1015.0
20260903230004 89 280 0.0 0.9 0.00 0.00 0.00 68 1015.1
20260903224503 90 280 0.0 1.7 0.00 0.00 0.00 65 1015.1
20260903223002 91 280 0.0 2.6 0.00 0.00 0.00 63 1015.1
20260903221503 93 273 0.0 1.7 0.00 0.00 0.00 60 1015.0
20260903220002 94 273 0.0 1.7 0.00 0.00 0.00 59 1015.0
20260903214504 94 277 0.0 2.6 0.00 0.00 0.00 58 1015.0
20260903213112 95 277 0.0 1.7 0.00 0.00 0.00 58 1015.0
20260903211600 95 277 0.0 5.2 0.00 0.00 0.00 56 1015.1
20260903210100 95 9 0.9 2.6 0.00 0.00 0.00 56 1015.0
20260903204557 96 10 0.0 2.6 0.00 0.00 0.00 56 1015.3
20260903203057 95 337 0.0 1.7 0.00 0.00 0.00 59 1015.4
20260903201555 95 337 0.0 1.7 0.00 0.00 0.00 57 1015.5
20260903200054 96 338 0.9 7.0 0.00 0.00 0.00 55 1015.7
20260903194551 95 301 0.0 3.5 0.00 0.00 0.00 56 1015.8
20260903193050 95 302 0.0 3.5 0.00 0.00 0.00 57 1016.1
20260903191549 94 290 0.0 1.7 0.00 0.00 0.00 58 1016.2
20260903190049 94 289 0.0 4.3 0.00 0.00 0.00 58 1016.3
20260903184550 95 270 0.0 3.5 0.00 0.00 0.00 58 1016.4
20260903183044 94 274 0.0 3.5 0.00 0.00 0.00 58 1016.6
20260903181543 92 309 0.0 1.7 0.00 0.00 0.00 63 1016.6
20260903180042 92 309 0.0 2.6 0.00 0.00 0.00 60 1016.7
20260903174542 94 284 0.9 4.3 0.00 0.00 0.00 61 1016.7
20260903173038 92 281 0.0 0.0 0.00 0.00 0.00 62 1016.9
20260903171544 91 281 0.0 1.7 0.00 0.00 0.00 64 1017.1
20260903170043 92 265 0.9 1.7 0.00 0.00 0.00 62 1017.1
20260903164533 91 257 0.0 7.8 0.00 0.00 0.00 64 1017.3
20260903163034 92 193 1.7 4.3 0.00 0.00 0.00 63 1017.5
20260903161529 91 186 0.9 4.3 0.00 0.00 0.00 63 1017.5
20260903160024 90 306 0.9 3.5 0.00 0.00 0.00 64 1017.7
20260903154521 90 298 0.0 2.6 0.00 0.00 0.00 66 1017.8
20260903153019 89 333 1.7 2.6 0.00 0.00 0.00 69 1017.9
20260903151517 88 9 0.9 3.5 0.00 0.00 0.00 68 1018.0
20260903150017 87 20 0.9 4.3 0.00 0.00 0.00 68 1018.0
20260903144514 85 42 0.0 3.5 0.00 0.00 0.00 71 1018.0
20260903143006 84 41 0.0 2.6 0.00 0.00 0.00 73 1018.0
20260903141506 83 30 0.9 4.3 0.00 0.00 0.00 77 1017.9
20260903140100 81 66 0.0 2.6 0.00 0.00 0.00 79 1017.9
20260903134617 79 89 0.0 3.5 0.00 0.00 0.00 84 1018.0
20260903133055 77 55 0.0 1.7 0.00 0.00 0.00 90 1018.1
20260903131553 75 41 0.0 0.0 0.00 0.00 0.00 95 1018.2
20260903130100 75 41 0.0 0.0 0.00 0.00 0.00 96 1018.2
20260903124555 73 41 0.0 0.0 0.00 0.00 0.00 95 1018.4